TimeMST,TemperatureF,Dew PointF,Humidity,Sea Level PressureIn,VisibilityMPH,Wind Direction,Wind SpeedMPH,Gust SpeedMPH,PrecipitationIn,Events,Conditions,WindDirDegrees,DateUTC
12:57 AM,93.9,57.9,30,29.76,10.0,SSE,13.8,-,N/A,,Scattered Clouds,150,2013-08-19 07:57:00
1:57 AM,93.0,61.0,34,29.76,10.0,SE,12.7,-,N/A,,Mostly Cloudy,130,2013-08-19 08:57:00
1:58 AM,93.0,61.0,34,29.76,10.0,SE,12.7,-,N/A,,Mostly Cloudy,130,2013-08-19 08:58:00
2:57 AM,93.0,61.0,34,29.75,10.0,ESE,8.1,-,N/A,,Mostly Cloudy,110,2013-08-19 09:57:00
3:57 AM,93.0,61.0,34,29.75,10.0,East,5.8,-,N/A,,Mostly Cloudy,80,2013-08-19 10:57:00
4:57 AM,93.9,61.0,33,29.77,10.0,East,8.1,-,N/A,,Mostly Cloudy,90,2013-08-19 11:57:00
5:57 AM,91.0,57.9,33,29.79,10.0,NNW,3.5,-,N/A,,Mostly Cloudy,340,2013-08-19 12:57:00
6:57 AM,91.0,57.9,33,29.81,10.0,East,4.6,-,N/A,,Mostly Cloudy,80,2013-08-19 13:57:00
7:57 AM,95.0,59.0,30,29.82,10.0,NNE,9.2,-,N/A,,Mostly Cloudy,30,2013-08-19 14:57:00
8:57 AM,98.1,59.0,27,29.82,10.0,NNE,8.1,-,N/A,,Mostly Cloudy,30,2013-08-19 15:57:00
9:57 AM,100.0,57.0,24,29.83,10.0,Calm,Calm,-,N/A,,Mostly Cloudy,0,2013-08-19 16:57:00
10:57 AM,102.9,57.0,22,29.82,10.0,WSW,5.8,-,N/A,,Mostly Cloudy,250,2013-08-19 17:57:00
11:57 AM,102.9,55.9,21,29.81,10.0,SSE,5.8,-,N/A,,Mostly Cloudy,160,2013-08-19 18:57:00
12:57 PM,106.0,52.0,17,29.79,10.0,SSW,8.1,-,N/A,,Mostly Cloudy,200,2013-08-19 19:57:00
1:57 PM,106.0,48.9,15,29.76,10.0,SSW,6.9,-,N/A,,Mostly Cloudy,200,2013-08-19 20:57:00
2:57 PM,109.0,50.0,14,29.74,10.0,SW,8.1,-,N/A,,Mostly Cloudy,220,2013-08-19 21:57:00
3:57 PM,109.0,52.0,15,29.72,10.0,South,8.1,-,N/A,,Mostly Cloudy,190,2013-08-19 22:57:00
4:07 PM,66.2,46.4,49,-9999,-9999.0,North,-9999.0,-,N/A,,Unknown,0,2013-08-19 23:07:00
4:57 PM,107.1,51.1,16,29.70,10.0,West,6.9,-,N/A,,Mostly Cloudy,260,2013-08-19 23:57:00
5:57 PM,107.1,52.0,16,29.69,10.0,West,8.1,-,N/A,,Mostly Cloudy,270,2013-08-20 00:57:00
6:57 PM,104.0,54.0,19,29.69,10.0,WNW,8.1,-,N/A,,Mostly Cloudy,290,2013-08-20 01:57:00
7:57 PM,100.9,55.0,22,29.70,10.0,WNW,4.6,-,N/A,,Scattered Clouds,290,2013-08-20 02:57:00
8:57 PM,99.0,55.0,23,29.72,10.0,West,3.5,-,N/A,,Scattered Clouds,270,2013-08-20 03:57:00
9:57 PM,97.0,54.0,23,29.74,10.0,Calm,Calm,-,N/A,,Scattered Clouds,0,2013-08-20 04:57:00
10:57 PM,96.1,55.0,25,29.75,10.0,WSW,5.8,-,N/A,,Mostly Cloudy,240,2013-08-20 05:57:00
11:57 PM,91.9,55.9,30,29.75,10.0,West,3.5,-,N/A,,Mostly Cloudy,270,2013-08-20 06:57:00